الصفحة الرئيسية
METAR-TAF:

METAR-TAF

مطار :

Safford, أريزونا, الولايات المتحدة

دائرة عرض: 32-51-26N, خط طول: 109-38-08W, ارتفاع: 968 متر

مراقبة الطقس الحالي

تاريخ ووقت الإصدار 34 دقيقة قبل الساعة 13:51UTC
ريح 9 عقدة من الشمال/الشمال الغربي
درجة الحرارة 3°درجة مئوية
الرطوبة 30%
ضغط 1023 hPa
الرؤية: 16.1 كم
سماء صافية

METAR: KSAD 131351Z AUTO 34009KT 10SM CLR 03/M13 A3022 RMK AO2 SLP221 T00331133

زمن: 07:25 (14:25 UTC)


TAF: مفقودة

أرصاد الطقس والتوقعات من أكثر من 4000 مطار (تقارير الطقس للمطار METAR والتنبؤ بالطقس بالمطارTAF).

المحطات المتاحة هي النقط الصفراء والحمراء على الخريطة.

حرك المؤشر فوق النقطة لمعرفة اسم المحطة.

ثم انقر لمعرفة أرصاد وتوقعات الطقس.

لتغيير الخارطة: اضغط على الأزرار الخضراء مع رمز الصليب الأسود للتكبير. على الزر الأخضر مع شرطة للتصغير، أو على الأسهم الخضراء للخرائط المجاورة.


METAR-TAF: